Year,Month,Day,Hour,Minute,Value (Times are PST for temperature in C)
2013,07,02,00,00,17.00
2013,07,02,00,01,16.90
2013,07,02,00,02,16.90
2013,07,02,00,03,16.90
2013,07,02,00,04,16.80
2013,07,02,00,05,16.80
2013,07,02,00,06,16.80
2013,07,02,00,07,16.70
2013,07,02,00,08,16.70
2013,07,02,00,09,16.70
2013,07,02,00,10,16.60
2013,07,02,00,11,16.60
2013,07,02,00,12,16.60
2013,07,02,00,13,16.50
2013,07,02,00,14,16.50
2013,07,02,00,15,16.40
2013,07,02,00,16,16.40
2013,07,02,00,17,16.30
2013,07,02,00,18,16.30
2013,07,02,00,19,16.30
2013,07,02,00,20,16.30
2013,07,02,00,21,16.20
2013,07,02,00,22,16.20
2013,07,02,00,23,16.20
2013,07,02,00,24,16.20
2013,07,02,00,25,16.20
2013,07,02,00,26,16.20
2013,07,02,00,27,16.20
2013,07,02,00,28,16.20
2013,07,02,00,29,16.20
2013,07,02,00,30,16.20
2013,07,02,00,31,16.20
2013,07,02,00,32,16.20
2013,07,02,00,33,16.20
2013,07,02,00,34,16.20
2013,07,02,00,35,16.20
2013,07,02,00,36,16.20
2013,07,02,00,37,16.20
2013,07,02,00,38,16.10
2013,07,02,00,39,16.10
2013,07,02,00,40,16.10
2013,07,02,00,41,16.10
2013,07,02,00,42,16.00
2013,07,02,00,43,16.00
2013,07,02,00,44,15.90
2013,07,02,00,45,15.90
2013,07,02,00,46,15.90
2013,07,02,00,47,15.90
2013,07,02,00,48,15.90
2013,07,02,00,49,15.90
2013,07,02,00,50,15.80
2013,07,02,00,51,15.80
2013,07,02,00,52,15.80
2013,07,02,00,53,15.80
2013,07,02,00,54,15.80
2013,07,02,00,55,15.80
2013,07,02,00,56,15.80
2013,07,02,00,57,15.80
2013,07,02,00,58,15.70
2013,07,02,00,59,15.70
2013,07,02,01,00,15.70
2013,07,02,01,01,15.70
2013,07,02,01,02,15.60
2013,07,02,01,03,15.60
2013,07,02,01,04,15.60
2013,07,02,01,05,15.60
2013,07,02,01,06,15.60
2013,07,02,01,07,15.60
2013,07,02,01,08,15.60
2013,07,02,01,09,15.60
2013,07,02,01,10,15.50
2013,07,02,01,11,15.50
2013,07,02,01,12,15.50
2013,07,02,01,13,15.50
2013,07,02,01,14,15.50
2013,07,02,01,15,15.50
2013,07,02,01,16,15.50
2013,07,02,01,17,15.50
2013,07,02,01,18,15.50
2013,07,02,01,19,15.50
2013,07,02,01,20,15.40
2013,07,02,01,21,15.40
2013,07,02,01,22,15.40
2013,07,02,01,23,15.40
2013,07,02,01,24,15.40
2013,07,02,01,25,15.40
2013,07,02,01,26,15.40
2013,07,02,01,27,15.40
2013,07,02,01,28,15.40
2013,07,02,01,29,15.40
2013,07,02,01,30,15.30
2013,07,02,01,31,15.30
2013,07,02,01,32,15.30
2013,07,02,01,33,15.30
2013,07,02,01,34,15.30
2013,07,02,01,35,15.30
2013,07,02,01,36,15.30
2013,07,02,01,37,15.30
2013,07,02,01,38,15.30
2013,07,02,01,39,15.30
2013,07,02,01,40,15.30
2013,07,02,01,41,15.30
2013,07,02,01,42,15.30
2013,07,02,01,43,15.30
2013,07,02,01,44,15.30
2013,07,02,01,45,15.20
2013,07,02,01,46,15.20
2013,07,02,01,47,15.20
2013,07,02,01,48,15.20
2013,07,02,01,49,15.10
2013,07,02,01,50,15.10
2013,07,02,01,51,15.10
2013,07,02,01,52,15.10
2013,07,02,01,53,15.00
2013,07,02,01,54,15.00
2013,07,02,01,55,15.00
2013,07,02,01,56,15.00
2013,07,02,01,57,15.00
2013,07,02,01,58,15.00
2013,07,02,01,59,15.00
2013,07,02,02,00,15.00
2013,07,02,02,01,15.00
2013,07,02,02,02,15.00
2013,07,02,02,03,15.00
2013,07,02,02,04,15.00
2013,07,02,02,05,15.00
2013,07,02,02,06,15.00
2013,07,02,02,07,15.00
2013,07,02,02,08,15.00
2013,07,02,02,09,14.90
2013,07,02,02,10,15.00
2013,07,02,02,11,14.90
2013,07,02,02,12,14.90
2013,07,02,02,13,14.90
2013,07,02,02,14,14.90
2013,07,02,02,15,14.90
2013,07,02,02,16,14.80
2013,07,02,02,17,14.80
2013,07,02,02,18,14.80
2013,07,02,02,19,14.80
2013,07,02,02,20,14.80
2013,07,02,02,21,14.80
2013,07,02,02,22,14.80
2013,07,02,02,23,14.80
2013,07,02,02,24,14.80
2013,07,02,02,25,14.80
2013,07,02,02,26,14.80
2013,07,02,02,27,14.80
2013,07,02,02,28,14.80
2013,07,02,02,29,14.80
2013,07,02,02,30,14.80
2013,07,02,02,31,14.80
2013,07,02,02,32,14.80
2013,07,02,02,33,14.80
2013,07,02,02,34,14.80
2013,07,02,02,35,14.80
2013,07,02,02,36,14.80
2013,07,02,02,37,14.80
2013,07,02,02,38,14.80
2013,07,02,02,39,14.80
2013,07,02,02,40,14.80
2013,07,02,02,41,14.80
2013,07,02,02,42,14.80
2013,07,02,02,43,14.80
2013,07,02,02,44,14.80
2013,07,02,02,45,14.80
2013,07,02,02,46,14.80
2013,07,02,02,47,14.80
2013,07,02,02,48,14.80
2013,07,02,02,49,14.80
2013,07,02,02,50,14.80
2013,07,02,02,51,14.80
2013,07,02,02,52,14.80
2013,07,02,02,53,14.80
2013,07,02,02,54,14.80
2013,07,02,02,55,14.80
2013,07,02,02,56,14.80
2013,07,02,02,57,14.80
2013,07,02,02,58,14.80
2013,07,02,02,59,14.80
2013,07,02,03,00,14.80
2013,07,02,03,01,14.80
2013,07,02,03,02,14.80
2013,07,02,03,03,14.80
2013,07,02,03,04,14.70
2013,07,02,03,05,14.70
2013,07,02,03,06,14.70
2013,07,02,03,07,14.70
2013,07,02,03,08,14.70
2013,07,02,03,09,14.70
2013,07,02,03,10,14.70
2013,07,02,03,11,14.70
2013,07,02,03,12,14.70
2013,07,02,03,13,14.70
2013,07,02,03,14,14.70
2013,07,02,03,15,14.70
2013,07,02,03,16,14.70
2013,07,02,03,17,14.70
2013,07,02,03,18,14.70
2013,07,02,03,19,14.70
2013,07,02,03,20,14.70
2013,07,02,03,21,14.70
2013,07,02,03,22,14.70
2013,07,02,03,23,14.70
2013,07,02,03,24,14.70
2013,07,02,03,25,14.70
2013,07,02,03,26,14.70
2013,07,02,03,27,14.70
2013,07,02,03,28,14.70
2013,07,02,03,29,14.70
2013,07,02,03,30,14.70
2013,07,02,03,31,14.70
2013,07,02,03,32,14.70
2013,07,02,03,33,14.70
2013,07,02,03,34,14.70
2013,07,02,03,35,14.70
2013,07,02,03,36,14.70
2013,07,02,03,37,14.70
2013,07,02,03,38,14.60
2013,07,02,03,39,14.60
2013,07,02,03,40,14.60
2013,07,02,03,41,14.50
2013,07,02,03,42,14.50
2013,07,02,03,43,14.50
2013,07,02,03,44,14.50
2013,07,02,03,45,14.40
2013,07,02,03,46,14.40
2013,07,02,03,47,14.40
2013,07,02,03,48,14.40
2013,07,02,03,49,14.40
2013,07,02,03,50,14.30
2013,07,02,03,51,14.30
2013,07,02,03,52,14.30
2013,07,02,03,53,14.20
2013,07,02,03,54,14.20
2013,07,02,03,55,14.20
2013,07,02,03,56,14.20
2013,07,02,03,57,14.20
2013,07,02,03,58,14.20
2013,07,02,03,59,14.10
2013,07,02,04,00,14.10
2013,07,02,04,01,14.10
2013,07,02,04,02,14.00
2013,07,02,04,03,14.00
2013,07,02,04,04,14.00
2013,07,02,04,05,14.00
2013,07,02,04,06,14.00
2013,07,02,04,07,14.00
2013,07,02,04,08,13.90
2013,07,02,04,09,13.90
2013,07,02,04,10,13.90
2013,07,02,04,11,13.90
2013,07,02,04,12,13.90
2013,07,02,04,13,13.90
2013,07,02,04,14,13.90
2013,07,02,04,15,13.90
2013,07,02,04,16,13.90
2013,07,02,04,17,13.90
2013,07,02,04,18,13.90
2013,07,02,04,19,13.90
2013,07,02,04,20,13.90
2013,07,02,04,21,13.90
2013,07,02,04,22,13.90
2013,07,02,04,23,13.90
2013,07,02,04,24,13.90
2013,07,02,04,25,13.90
2013,07,02,04,26,13.90
2013,07,02,04,27,13.90
2013,07,02,04,28,13.90
2013,07,02,04,29,13.90
2013,07,02,04,30,13.90
2013,07,02,04,31,13.90
2013,07,02,04,32,13.90
2013,07,02,04,33,13.90
2013,07,02,04,34,13.90
2013,07,02,04,35,13.80
2013,07,02,04,36,13.80
2013,07,02,04,37,13.80
2013,07,02,04,38,13.80
2013,07,02,04,39,13.80
2013,07,02,04,40,13.80
2013,07,02,04,41,13.80
2013,07,02,04,42,13.80
2013,07,02,04,43,13.80
2013,07,02,04,44,13.80
2013,07,02,04,45,13.90
2013,07,02,04,46,13.90
2013,07,02,04,47,13.90
2013,07,02,04,48,13.90
2013,07,02,04,49,13.90
2013,07,02,04,50,13.90
2013,07,02,04,51,13.90
2013,07,02,04,52,13.90
2013,07,02,04,53,13.90
2013,07,02,04,54,13.90
2013,07,02,04,55,13.90
2013,07,02,04,56,13.90
2013,07,02,04,57,13.90
2013,07,02,04,58,13.90
2013,07,02,04,59,13.90
2013,07,02,05,00,14.00
2013,07,02,05,01,14.00
2013,07,02,05,02,14.00
2013,07,02,05,03,14.00
2013,07,02,05,04,13.90
2013,07,02,05,05,13.90
2013,07,02,05,06,13.90
2013,07,02,05,07,13.90
2013,07,02,05,08,13.90
2013,07,02,05,09,13.90
2013,07,02,05,10,13.90
2013,07,02,05,11,13.90
2013,07,02,05,12,13.90
2013,07,02,05,13,13.90
2013,07,02,05,14,13.90
2013,07,02,05,15,13.80
2013,07,02,05,16,13.80
2013,07,02,05,17,13.80
2013,07,02,05,18,13.80
2013,07,02,05,19,13.80
2013,07,02,05,20,13.80
2013,07,02,05,21,13.80
2013,07,02,05,22,13.80
2013,07,02,05,23,13.80
2013,07,02,05,24,13.80
2013,07,02,05,25,13.80
2013,07,02,05,26,13.80
2013,07,02,05,27,13.80
2013,07,02,05,28,13.80
2013,07,02,05,29,13.80
2013,07,02,05,30,13.80
2013,07,02,05,31,13.80
2013,07,02,05,32,13.80
2013,07,02,05,33,13.70
2013,07,02,05,34,13.70
2013,07,02,05,35,13.70
2013,07,02,05,36,13.70
2013,07,02,05,37,13.70
2013,07,02,05,38,13.70
2013,07,02,05,39,13.70
2013,07,02,05,40,13.70
2013,07,02,05,41,13.70
2013,07,02,05,42,13.70
2013,07,02,05,43,13.70
2013,07,02,05,44,13.80
2013,07,02,05,45,13.80
2013,07,02,05,46,13.80
2013,07,02,05,47,13.80
2013,07,02,05,48,13.80
2013,07,02,05,49,13.80
2013,07,02,05,50,13.80
2013,07,02,05,51,13.80
2013,07,02,05,52,13.70
2013,07,02,05,53,13.80
2013,07,02,05,54,13.80
2013,07,02,05,55,13.70
2013,07,02,05,56,13.80
2013,07,02,05,57,13.80
2013,07,02,05,58,13.80
2013,07,02,05,59,13.80
2013,07,02,06,00,13.80
2013,07,02,06,01,13.80
2013,07,02,06,02,13.80
2013,07,02,06,03,13.80
2013,07,02,06,04,13.80
2013,07,02,06,05,13.80
2013,07,02,06,06,13.80
2013,07,02,06,07,13.80
2013,07,02,06,08,13.80
2013,07,02,06,09,13.80
2013,07,02,06,10,13.80
2013,07,02,06,11,13.80
2013,07,02,06,12,13.80
2013,07,02,06,13,13.90
2013,07,02,06,14,13.90
2013,07,02,06,15,13.90
2013,07,02,06,16,13.90
2013,07,02,06,17,13.90
2013,07,02,06,18,14.00
2013,07,02,06,19,14.00
2013,07,02,06,20,14.00
2013,07,02,06,21,14.10
2013,07,02,06,22,14.10
2013,07,02,06,23,14.10
2013,07,02,06,24,14.10
2013,07,02,06,25,14.10
2013,07,02,06,26,14.20
2013,07,02,06,27,14.20
2013,07,02,06,28,14.20
2013,07,02,06,29,14.20
2013,07,02,06,30,14.30
2013,07,02,06,31,14.30
2013,07,02,06,32,14.30
2013,07,02,06,33,14.40
2013,07,02,06,34,14.40
2013,07,02,06,35,14.40
2013,07,02,06,36,14.50
2013,07,02,06,37,14.50
2013,07,02,06,38,14.60
2013,07,02,06,39,14.60
2013,07,02,06,40,14.60
2013,07,02,06,41,14.70
2013,07,02,06,42,14.70
2013,07,02,06,43,14.70
2013,07,02,06,44,14.80
2013,07,02,06,45,14.80
2013,07,02,06,46,14.80
2013,07,02,06,47,14.90
2013,07,02,06,48,14.90
2013,07,02,06,49,15.00
2013,07,02,06,50,15.00
2013,07,02,06,51,15.00
2013,07,02,06,52,15.10
2013,07,02,06,53,15.10
2013,07,02,06,54,15.10
2013,07,02,06,55,15.20
2013,07,02,06,56,15.20
2013,07,02,06,57,15.20
2013,07,02,06,58,15.30
2013,07,02,06,59,15.30
2013,07,02,07,00,15.30
2013,07,02,07,01,15.40
2013,07,02,07,02,15.40
2013,07,02,07,03,15.50
2013,07,02,07,04,15.50
2013,07,02,07,05,15.60
2013,07,02,07,06,15.60
2013,07,02,07,07,15.70
2013,07,02,07,08,15.70
2013,07,02,07,09,15.80
2013,07,02,07,10,15.80
2013,07,02,07,11,15.90
2013,07,02,07,12,15.90
2013,07,02,07,13,16.00
2013,07,02,07,14,16.00
2013,07,02,07,15,16.10
2013,07,02,07,16,16.10
2013,07,02,07,17,16.10
2013,07,02,07,18,16.20
2013,07,02,07,19,16.20
2013,07,02,07,20,16.20
2013,07,02,07,21,16.20
2013,07,02,07,22,16.20
2013,07,02,07,23,16.20
2013,07,02,07,24,16.20
2013,07,02,07,25,16.20
2013,07,02,07,26,16.20
2013,07,02,07,27,16.20
2013,07,02,07,28,16.30
2013,07,02,07,29,16.30
2013,07,02,07,30,16.30
2013,07,02,07,31,16.30
2013,07,02,07,32,16.40
2013,07,02,07,33,16.40
2013,07,02,07,34,16.50
2013,07,02,07,35,16.50
2013,07,02,07,36,16.60
2013,07,02,07,37,16.60
2013,07,02,07,38,16.70
2013,07,02,07,39,16.80
2013,07,02,07,40,16.90
2013,07,02,07,41,17.00
2013,07,02,07,42,17.00
2013,07,02,07,43,17.10
2013,07,02,07,44,17.10
2013,07,02,07,45,17.10
2013,07,02,07,46,17.10
2013,07,02,07,47,17.10
2013,07,02,07,48,17.10
2013,07,02,07,49,17.10
2013,07,02,07,50,17.20
2013,07,02,07,51,17.20
2013,07,02,07,52,17.20
2013,07,02,07,53,17.30
2013,07,02,07,54,17.30
2013,07,02,07,55,17.30
2013,07,02,07,56,17.40
2013,07,02,07,57,17.40
2013,07,02,07,58,17.40
2013,07,02,07,59,17.50
2013,07,02,08,00,17.50
2013,07,02,08,01,17.50
2013,07,02,08,02,17.50
2013,07,02,08,03,17.60
2013,07,02,08,04,17.60
2013,07,02,08,05,17.70
2013,07,02,08,06,17.70
2013,07,02,08,07,17.80
2013,07,02,08,08,17.80
2013,07,02,08,09,17.80
2013,07,02,08,10,17.80
2013,07,02,08,11,17.80
2013,07,02,08,12,17.70
2013,07,02,08,13,17.70
2013,07,02,08,14,17.70
2013,07,02,08,15,17.70
2013,07,02,08,16,17.60
2013,07,02,08,17,17.60
2013,07,02,08,18,17.60
2013,07,02,08,19,17.60
2013,07,02,08,20,17.60
2013,07,02,08,21,17.70
2013,07,02,08,22,17.70
2013,07,02,08,23,17.70
2013,07,02,08,24,17.70
2013,07,02,08,25,17.70
2013,07,02,08,26,17.70
2013,07,02,08,27,17.70
2013,07,02,08,28,17.80
2013,07,02,08,29,17.80
2013,07,02,08,30,17.80
2013,07,02,08,31,17.80
2013,07,02,08,32,17.80
2013,07,02,08,33,17.80
2013,07,02,08,34,17.90
2013,07,02,08,35,17.90
2013,07,02,08,36,18.00
2013,07,02,08,37,18.00
2013,07,02,08,38,18.10
2013,07,02,08,39,18.10
2013,07,02,08,40,18.10
2013,07,02,08,41,18.10
2013,07,02,08,42,18.10
2013,07,02,08,43,18.20
2013,07,02,08,44,18.20
2013,07,02,08,45,18.20
2013,07,02,08,46,18.20
2013,07,02,08,47,18.30
2013,07,02,08,48,18.30
2013,07,02,08,49,18.30
2013,07,02,08,50,18.40
2013,07,02,08,51,18.40
2013,07,02,08,52,18.50
2013,07,02,08,53,18.60
2013,07,02,08,54,18.70
2013,07,02,08,55,18.70
2013,07,02,08,56,18.80
2013,07,02,08,57,18.80
2013,07,02,08,58,18.80
2013,07,02,08,59,18.80
2013,07,02,09,00,18.80
2013,07,02,09,01,18.70
2013,07,02,09,02,18.70
2013,07,02,09,03,18.60
2013,07,02,09,04,18.60
2013,07,02,09,05,18.60
2013,07,02,09,06,18.60
2013,07,02,09,07,18.60
2013,07,02,09,08,18.60
2013,07,02,09,09,18.60
2013,07,02,09,10,18.60
2013,07,02,09,11,18.60
2013,07,02,09,12,18.70
2013,07,02,09,13,18.70
2013,07,02,09,14,18.80
2013,07,02,09,15,18.90
2013,07,02,09,16,19.00
2013,07,02,09,17,19.00
2013,07,02,09,18,19.10
2013,07,02,09,19,19.10
2013,07,02,09,20,19.20
2013,07,02,09,21,19.20
2013,07,02,09,22,19.20
2013,07,02,09,23,19.20
2013,07,02,09,24,19.10
2013,07,02,09,25,19.10
2013,07,02,09,26,19.10
2013,07,02,09,27,19.10
2013,07,02,09,28,19.10
2013,07,02,09,29,19.10
2013,07,02,09,30,19.00
2013,07,02,09,31,19.00
2013,07,02,09,32,18.90
2013,07,02,09,33,18.90
2013,07,02,09,34,18.90
2013,07,02,09,35,19.00
2013,07,02,09,36,19.00
2013,07,02,09,37,19.10
2013,07,02,09,38,19.10
2013,07,02,09,39,19.20
2013,07,02,09,40,19.20
2013,07,02,09,41,19.30
2013,07,02,09,42,19.40
2013,07,02,09,43,19.50
2013,07,02,09,44,19.60
2013,07,02,09,45,19.60
2013,07,02,09,46,19.60
2013,07,02,09,47,19.60
2013,07,02,09,48,19.60
2013,07,02,09,49,19.70
2013,07,02,09,50,19.70
2013,07,02,09,51,19.70
2013,07,02,09,52,19.70
2013,07,02,09,53,19.70
2013,07,02,09,54,19.70
2013,07,02,09,55,19.70
2013,07,02,09,56,19.70
2013,07,02,09,57,19.70
2013,07,02,09,58,19.70
2013,07,02,09,59,19.70
2013,07,02,10,00,19.70
2013,07,02,10,01,19.80
2013,07,02,10,02,19.80
2013,07,02,10,03,19.90
2013,07,02,10,04,19.90
2013,07,02,10,05,19.90
2013,07,02,10,06,20.00
2013,07,02,10,07,20.00
2013,07,02,10,08,20.00
2013,07,02,10,09,20.10
2013,07,02,10,10,20.10
2013,07,02,10,11,20.10
2013,07,02,10,12,20.10
2013,07,02,10,13,20.20
2013,07,02,10,14,20.20
2013,07,02,10,15,20.20
2013,07,02,10,16,20.10
2013,07,02,10,17,20.10
2013,07,02,10,18,20.10
2013,07,02,10,19,20.10
2013,07,02,10,20,20.10
2013,07,02,10,21,20.10
2013,07,02,10,22,20.10
2013,07,02,10,23,20.00
2013,07,02,10,24,20.00
2013,07,02,10,25,20.00
2013,07,02,10,26,20.10
2013,07,02,10,27,20.10
2013,07,02,10,28,20.00
2013,07,02,10,29,20.10
2013,07,02,10,30,20.10
2013,07,02,10,31,20.00
2013,07,02,10,32,20.00
2013,07,02,10,33,20.00
2013,07,02,10,34,20.00
2013,07,02,10,35,20.00
2013,07,02,10,36,20.10
2013,07,02,10,37,20.10
2013,07,02,10,38,20.10
2013,07,02,10,39,20.10
2013,07,02,10,40,20.20
2013,07,02,10,41,20.30
2013,07,02,10,42,20.40
2013,07,02,10,43,20.50
2013,07,02,10,44,20.60
2013,07,02,10,45,20.70
2013,07,02,10,46,20.80
2013,07,02,10,47,20.90
2013,07,02,10,48,21.00
2013,07,02,10,49,21.10
2013,07,02,10,50,21.30
2013,07,02,10,51,21.30
2013,07,02,10,52,21.40
2013,07,02,10,53,21.50
2013,07,02,10,54,21.60
2013,07,02,10,55,21.70
2013,07,02,10,56,21.80
2013,07,02,10,57,21.90
2013,07,02,10,58,21.90
2013,07,02,10,59,21.90
2013,07,02,11,00,21.90
2013,07,02,11,01,22.00
2013,07,02,11,02,22.00
2013,07,02,11,03,22.00
2013,07,02,11,04,22.10
2013,07,02,11,05,22.10
2013,07,02,11,06,22.20
2013,07,02,11,07,22.20
2013,07,02,11,08,22.30
2013,07,02,11,09,22.30
2013,07,02,11,10,22.30
2013,07,02,11,11,22.30
2013,07,02,11,12,22.40
2013,07,02,11,13,22.40
2013,07,02,11,14,22.50
2013,07,02,11,15,22.60
2013,07,02,11,16,22.60
2013,07,02,11,17,22.70
2013,07,02,11,18,22.70
2013,07,02,11,19,22.80
2013,07,02,11,20,22.90
2013,07,02,11,21,23.00
2013,07,02,11,22,23.10
2013,07,02,11,23,23.10
2013,07,02,11,24,23.10
2013,07,02,11,25,23.10
2013,07,02,11,26,23.00
2013,07,02,11,27,22.90
2013,07,02,11,28,22.90
2013,07,02,11,29,22.70
2013,07,02,11,30,22.60
2013,07,02,11,31,22.50
2013,07,02,11,32,22.40
2013,07,02,11,33,22.40
2013,07,02,11,34,22.40
2013,07,02,11,35,22.50
2013,07,02,11,36,22.60
2013,07,02,11,37,22.60
2013,07,02,11,38,22.80
2013,07,02,11,39,22.90
2013,07,02,11,40,23.00
2013,07,02,11,41,23.10
2013,07,02,11,42,23.10
2013,07,02,11,43,23.20
2013,07,02,11,44,23.20
2013,07,02,11,45,23.20
2013,07,02,11,46,23.30
2013,07,02,11,47,23.30
2013,07,02,11,48,23.40
2013,07,02,11,49,23.50
2013,07,02,11,50,23.60
2013,07,02,11,51,23.70
2013,07,02,11,52,23.80
2013,07,02,11,53,23.90
2013,07,02,11,54,24.00
2013,07,02,11,55,24.00
2013,07,02,11,56,24.10
2013,07,02,11,57,24.20
2013,07,02,11,58,24.20
2013,07,02,11,59,24.20
2013,07,02,12,00,24.20
2013,07,02,12,01,24.30
2013,07,02,12,02,24.20
2013,07,02,12,03,24.20
2013,07,02,12,04,24.20
2013,07,02,12,05,24.20
2013,07,02,12,06,24.20
2013,07,02,12,07,24.20
2013,07,02,12,08,24.30
2013,07,02,12,09,24.40
2013,07,02,12,10,24.50
2013,07,02,12,11,24.50
2013,07,02,12,12,24.50
2013,07,02,12,13,24.40
2013,07,02,12,14,24.40
2013,07,02,12,15,24.30
2013,07,02,12,16,24.30
2013,07,02,12,17,24.30
2013,07,02,12,18,24.40
2013,07,02,12,19,24.40
2013,07,02,12,20,24.40
2013,07,02,12,21,24.40
2013,07,02,12,22,24.40
2013,07,02,12,23,24.10
2013,07,02,12,24,23.90
2013,07,02,12,25,23.70
2013,07,02,12,26,23.60
2013,07,02,12,27,23.50
2013,07,02,12,28,23.30
2013,07,02,12,29,23.20
2013,07,02,12,30,23.00
2013,07,02,12,31,22.90
2013,07,02,12,32,22.90
2013,07,02,12,33,22.80
2013,07,02,12,34,23.00
2013,07,02,12,35,23.10
2013,07,02,12,36,23.20
2013,07,02,12,37,23.30
2013,07,02,12,38,23.30
2013,07,02,12,39,23.40
2013,07,02,12,40,23.40
2013,07,02,12,41,23.60
2013,07,02,12,42,23.70
2013,07,02,12,43,23.80
2013,07,02,12,44,23.90
2013,07,02,12,45,23.90
2013,07,02,12,46,23.90
2013,07,02,12,47,23.90
2013,07,02,12,48,23.80
2013,07,02,12,49,23.90
2013,07,02,12,50,24.00
2013,07,02,12,51,24.10
2013,07,02,12,52,24.20
2013,07,02,12,53,24.30
2013,07,02,12,54,24.30
2013,07,02,12,55,24.40
2013,07,02,12,56,24.40
2013,07,02,12,57,24.50
2013,07,02,12,58,24.50
2013,07,02,12,59,24.60
2013,07,02,13,00,24.60
2013,07,02,13,01,24.60
2013,07,02,13,02,24.70
2013,07,02,13,03,24.80
2013,07,02,13,04,24.90
2013,07,02,13,05,24.90
2013,07,02,13,06,25.00
2013,07,02,13,07,25.00
2013,07,02,13,08,25.00
2013,07,02,13,09,25.00
2013,07,02,13,10,24.90
2013,07,02,13,11,24.80
2013,07,02,13,12,24.80
2013,07,02,13,13,24.80
2013,07,02,13,14,24.50
2013,07,02,13,15,24.20
2013,07,02,13,16,24.00
2013,07,02,13,17,23.70
2013,07,02,13,18,23.50
2013,07,02,13,19,23.40
2013,07,02,13,20,23.40
2013,07,02,13,21,23.40
2013,07,02,13,22,23.40
2013,07,02,13,23,23.40
2013,07,02,13,24,23.40
2013,07,02,13,25,23.40
2013,07,02,13,26,23.50
2013,07,02,13,27,23.60
2013,07,02,13,28,23.60
2013,07,02,13,29,23.70
2013,07,02,13,30,23.70
2013,07,02,13,31,23.80
2013,07,02,13,32,23.80
2013,07,02,13,33,23.80
2013,07,02,13,34,23.80
2013,07,02,13,35,23.80
2013,07,02,13,36,23.90
2013,07,02,13,37,23.90
2013,07,02,13,38,24.00
2013,07,02,13,39,24.10
2013,07,02,13,40,24.10
2013,07,02,13,41,24.10
2013,07,02,13,42,24.10
2013,07,02,13,43,24.20
2013,07,02,13,44,24.30
2013,07,02,13,45,24.40
2013,07,02,13,46,24.40
2013,07,02,13,47,24.30
2013,07,02,13,48,24.30
2013,07,02,13,49,24.30
2013,07,02,13,50,24.30
2013,07,02,13,51,24.30
2013,07,02,13,52,24.30
2013,07,02,13,53,24.30
2013,07,02,13,54,24.40
2013,07,02,13,55,24.50
2013,07,02,13,56,24.70
2013,07,02,13,57,24.80
2013,07,02,13,58,24.90
2013,07,02,13,59,24.90
2013,07,02,14,00,25.00
2013,07,02,14,01,25.20
2013,07,02,14,02,25.30
2013,07,02,14,03,25.40
2013,07,02,14,04,25.50
2013,07,02,14,05,25.60
2013,07,02,14,06,25.70
2013,07,02,14,07,25.80
2013,07,02,14,08,25.90
2013,07,02,14,09,25.90
2013,07,02,14,10,25.90
2013,07,02,14,11,26.00
2013,07,02,14,12,26.10
2013,07,02,14,13,26.10
2013,07,02,14,14,26.20
2013,07,02,14,15,26.20
2013,07,02,14,16,26.30
2013,07,02,14,17,26.30
2013,07,02,14,18,26.30
2013,07,02,14,19,26.30
2013,07,02,14,20,26.30
2013,07,02,14,21,26.30
2013,07,02,14,22,26.30
2013,07,02,14,23,26.20
2013,07,02,14,24,26.20
2013,07,02,14,25,26.20
2013,07,02,14,26,26.20
2013,07,02,14,27,26.20
2013,07,02,14,28,26.20
2013,07,02,14,29,26.20
2013,07,02,14,30,26.20
2013,07,02,14,31,26.20
2013,07,02,14,32,26.20
2013,07,02,14,33,26.20
2013,07,02,14,34,26.20
2013,07,02,14,35,26.10
2013,07,02,14,36,26.00
2013,07,02,14,37,25.90
2013,07,02,14,38,25.80
2013,07,02,14,39,25.70
2013,07,02,14,40,25.60
2013,07,02,14,41,25.40
2013,07,02,14,42,25.30
2013,07,02,14,43,25.20
2013,07,02,14,44,25.10
2013,07,02,14,45,25.00
2013,07,02,14,46,24.90
2013,07,02,14,47,24.80
2013,07,02,14,48,24.80
2013,07,02,14,49,24.70
2013,07,02,14,50,24.60
2013,07,02,14,51,24.50
2013,07,02,14,52,24.40
2013,07,02,14,53,24.20
2013,07,02,14,54,24.10
2013,07,02,14,55,24.00
2013,07,02,14,56,23.80
2013,07,02,14,57,23.70
2013,07,02,14,58,23.50
2013,07,02,14,59,23.20
2013,07,02,15,00,23.00
2013,07,02,15,01,22.90
2013,07,02,15,02,22.80
2013,07,02,15,03,22.80
2013,07,02,15,04,22.80
2013,07,02,15,05,22.80
2013,07,02,15,06,22.80
2013,07,02,15,07,22.80
2013,07,02,15,08,22.80
2013,07,02,15,09,22.90
2013,07,02,15,10,23.00
2013,07,02,15,11,23.10
2013,07,02,15,12,23.10
2013,07,02,15,13,23.10
2013,07,02,15,14,23.10
2013,07,02,15,15,23.10
2013,07,02,15,16,23.10
2013,07,02,15,17,23.10
2013,07,02,15,18,23.10
2013,07,02,15,19,23.20
2013,07,02,15,20,23.20
2013,07,02,15,21,23.10
2013,07,02,15,22,23.10
2013,07,02,15,23,23.00
2013,07,02,15,24,23.00
2013,07,02,15,25,22.90
2013,07,02,15,26,22.90
2013,07,02,15,27,23.00
2013,07,02,15,28,22.90
2013,07,02,15,29,23.00
2013,07,02,15,30,23.00
2013,07,02,15,31,22.90
2013,07,02,15,32,22.90
2013,07,02,15,33,22.90
2013,07,02,15,34,22.90
2013,07,02,15,35,22.90
2013,07,02,15,36,22.90
2013,07,02,15,37,23.00
2013,07,02,15,38,23.00
2013,07,02,15,39,23.00
2013,07,02,15,40,23.00
2013,07,02,15,41,23.00
2013,07,02,15,42,23.00
2013,07,02,15,43,23.00
2013,07,02,15,44,23.00
2013,07,02,15,45,22.90
2013,07,02,15,46,22.90
2013,07,02,15,47,22.80
2013,07,02,15,48,22.70
2013,07,02,15,49,22.70
2013,07,02,15,50,22.60
2013,07,02,15,51,22.50
2013,07,02,15,52,22.50
2013,07,02,15,53,22.40
2013,07,02,15,54,22.30
2013,07,02,15,55,22.30
2013,07,02,15,56,22.30
2013,07,02,15,57,22.40
2013,07,02,15,58,22.30
2013,07,02,15,59,22.30
2013,07,02,16,00,22.20
2013,07,02,16,01,22.10
2013,07,02,16,02,22.00
2013,07,02,16,03,21.90
2013,07,02,16,04,21.80
2013,07,02,16,05,21.80
2013,07,02,16,06,21.70
2013,07,02,16,07,21.70
2013,07,02,16,08,21.60
2013,07,02,16,09,21.60
2013,07,02,16,10,21.60
2013,07,02,16,11,21.60
2013,07,02,16,12,21.70
2013,07,02,16,13,21.70
2013,07,02,16,14,21.70
2013,07,02,16,15,21.80
2013,07,02,16,16,21.70
2013,07,02,16,17,21.70
2013,07,02,16,18,21.70
2013,07,02,16,19,21.70
2013,07,02,16,20,21.70
2013,07,02,16,21,21.70
2013,07,02,16,22,21.80
2013,07,02,16,23,21.80
2013,07,02,16,24,21.90
2013,07,02,16,25,21.90
2013,07,02,16,26,21.90
2013,07,02,16,27,21.90
2013,07,02,16,28,22.00
2013,07,02,16,29,22.10
2013,07,02,16,30,22.10
2013,07,02,16,31,22.20
2013,07,02,16,32,22.20
2013,07,02,16,33,22.20
2013,07,02,16,34,22.20
2013,07,02,16,35,22.20
2013,07,02,16,36,22.20
2013,07,02,16,37,22.20
2013,07,02,16,38,22.30
2013,07,02,16,39,22.30
2013,07,02,16,40,22.20
2013,07,02,16,41,22.20
2013,07,02,16,42,22.20
2013,07,02,16,43,22.30
2013,07,02,16,44,22.30
2013,07,02,16,45,22.30
2013,07,02,16,46,22.40
2013,07,02,16,47,22.40
2013,07,02,16,48,22.40
2013,07,02,16,49,22.40
2013,07,02,16,50,22.50
2013,07,02,16,51,22.50
2013,07,02,16,52,22.60
2013,07,02,16,53,22.60
2013,07,02,16,54,22.60
2013,07,02,16,55,22.60
2013,07,02,16,56,22.60
2013,07,02,16,57,22.60
2013,07,02,16,58,22.60
2013,07,02,16,59,22.50
2013,07,02,17,00,22.50
2013,07,02,17,01,22.50
2013,07,02,17,02,22.50
2013,07,02,17,03,22.50
2013,07,02,17,04,22.50
2013,07,02,17,05,22.60
2013,07,02,17,06,22.70
2013,07,02,17,07,22.70
2013,07,02,17,08,22.70
2013,07,02,17,09,22.80
2013,07,02,17,10,22.80
2013,07,02,17,11,22.80
2013,07,02,17,12,22.80
2013,07,02,17,13,22.80
2013,07,02,17,14,22.70
2013,07,02,17,15,22.70
2013,07,02,17,16,22.70
2013,07,02,17,17,22.70
2013,07,02,17,18,22.70
2013,07,02,17,19,22.70